Weather History for Mammoth, CA

Change the Weather History Date:

Sunday, January 5, 2014

  Actual Average Record
Temperature  
Mean Temperature 38 °F -  
Max Temperature 55 °F 35 °F 62 °F (2012)
Min Temperature 14 °F 20 °F -22 °F (2011)
Degree Days  
Heating Degree Days 27    
Moisture  
Dew Point -2 °F    
Average Humidity 24    
Maximum Humidity 53    
Minimum Humidity 7    
Precipitation  
Precipitation 0.00 in - - ()
Sea Level Pressure  
Sea Level Pressure 30.33 in    
Wind  
Wind Speed 8 mph (West)    
Max Wind Speed 15 mph    
Max Gust Speed -    
Visibility 10 miles    
Events      
Averages and records for this station are not official NWS values.
T = Trace of Precipitation, MM = Missing Value Source: NWS Daily Summary

Daily Weather History Graph

Daily Weather History Graph

Search for Another Location

Airport:

Trip Planner

Search our weather history database for the weather conditions in past years. The results will help you decide how hot, cold, wet, or windy it might be!

Date:

Astronomy

Jan. 05, 2014 Rise Set
Actual Time 7:10 AM PST 4:51 PM PST
Civil Twilight 6:41 AM PST 5:20 PM PST
Nautical Twilight 6:09 AM PST 5:52 PM PST
Astronomical Twilight 5:37 AM PST 6:24 PM PST
Moon 10:01 AM PST (1/5) 10:17 PM PST (1/5)
Length of Visible Light 10h 38m
Length of Day
9h 40m
Waxing Crescent, 25% of the Moon is Illuminated
Jan 5
Waxing Crescent
Jan 7
First Quarter
Jan 15
Full
Jan 23
Last Quarter
Jan 30
New

Hourly Weather History & Observations

Time (PST) Temp. Windchill Dew Point Humidity Pressure Visibility Wind Dir Wind Speed Gust Speed Precip Events Conditions
12:15 AM 30.2 °F 20.2 °F -2.2 °F 25% 30.26 in 10.0 mi West 12.7 mph - N/A   Clear
12:35 AM 30.2 °F 21.3 °F -0.4 °F 27% 30.26 in 10.0 mi West 10.4 mph - N/A   Clear
12:55 AM 30.2 °F 19.8 °F 1.4 °F 29% 30.26 in 10.0 mi West 13.8 mph - N/A   Clear
1:15 AM 30.2 °F 21.3 °F -0.4 °F 27% 30.26 in 10.0 mi West 10.4 mph - N/A   Clear
1:35 AM 24.8 °F - -0.4 °F 34% 30.27 in 10.0 mi Calm Calm - N/A   Clear
1:55 AM 30.2 °F 20.2 °F -2.2 °F 25% 30.28 in 10.0 mi West 12.7 mph - N/A   Clear
2:15 AM 26.6 °F 17.5 °F -2.2 °F 29% 30.28 in 10.0 mi West 9.2 mph - N/A   Clear
2:35 AM 28.4 °F 18.0 °F -2.2 °F 27% 30.28 in 10.0 mi West 12.7 mph - N/A   Clear
2:55 AM 28.4 °F 19.1 °F -2.2 °F 27% 30.28 in 10.0 mi West 10.4 mph - N/A   Clear
3:15 AM 30.2 °F 20.2 °F -4.0 °F 23% 30.29 in 10.0 mi West 12.7 mph - N/A   Clear
3:35 AM 30.2 °F 20.2 °F -4.0 °F 23% 30.30 in 10.0 mi West 12.7 mph - N/A   Clear
3:55 AM 28.4 °F 17.0 °F -4.0 °F 25% 30.30 in 10.0 mi West 15.0 mph - N/A   Clear
4:15 AM 28.4 °F 17.0 °F -4.0 °F 25% 30.30 in 10.0 mi West 15.0 mph - N/A   Clear
4:35 AM 28.4 °F 19.1 °F -4.0 °F 25% 30.30 in 10.0 mi West 10.4 mph - N/A   Clear
4:55 AM 26.6 °F 16.2 °F -4.0 °F 26% 30.30 in 10.0 mi West 11.5 mph - N/A   Clear
5:15 AM 26.6 °F 16.8 °F -4.0 °F 26% 30.30 in 10.0 mi West 10.4 mph - N/A   Clear
5:35 AM 26.6 °F 16.2 °F -4.0 °F 26% 30.31 in 10.0 mi West 11.5 mph - N/A   Clear
5:55 AM 28.4 °F 18.0 °F -5.8 °F 23% 30.31 in 10.0 mi West 12.7 mph - N/A   Clear
6:15 AM 28.4 °F 19.7 °F -5.8 °F 23% 30.32 in 10.0 mi West 9.2 mph - N/A   Clear
6:35 AM 28.4 °F 18.5 °F -5.8 °F 23% 30.32 in 10.0 mi West 11.5 mph - N/A   Clear
6:55 AM 24.8 °F 14.0 °F -2.2 °F 31% 30.33 in 10.0 mi West 11.5 mph - N/A   Clear
7:15 AM 24.8 °F 14.6 °F -4.0 °F 28% 30.33 in 10.0 mi West 10.4 mph - N/A   Clear
7:35 AM 26.6 °F 15.7 °F -4.0 °F 26% 30.34 in 10.0 mi West 12.7 mph - N/A   Clear
7:55 AM 28.4 °F 18.0 °F -4.0 °F 25% 30.36 in 10.0 mi West 12.7 mph - N/A   Clear
8:15 AM 30.2 °F 20.8 °F -4.0 °F 23% 30.37 in 10.0 mi West 11.5 mph - N/A   Clear
8:35 AM 32.0 °F 23.6 °F -4.0 °F 21% 30.37 in 10.0 mi West 10.4 mph - N/A   Clear
8:55 AM 35.6 °F 28.6 °F -4.0 °F 18% 30.38 in 10.0 mi West 9.2 mph - N/A   Clear
9:15 AM 37.4 °F 30.8 °F -2.2 °F 19% 30.38 in 10.0 mi West 9.2 mph - N/A   Clear
9:35 AM 39.2 °F 35.9 °F -4.0 °F 16% 30.38 in 10.0 mi West 4.6 mph - N/A   Clear
9:55 AM 41.0 °F - -2.2 °F 16% 30.38 in 10.0 mi Calm Calm - N/A   Clear
10:15 AM 42.8 °F 40.1 °F -2.2 °F 15% 30.38 in 10.0 mi SE 4.6 mph - N/A   Clear
10:35 AM 42.8 °F 40.1 °F -2.2 °F 15% 30.38 in 10.0 mi ESE 4.6 mph - N/A   Clear
10:55 AM 44.6 °F - -2.2 °F 14% 30.37 in 10.0 mi Calm Calm - N/A   Clear
11:15 AM 50.0 °F - -13.0 °F 7% 30.36 in 10.0 mi West 9.2 mph - N/A   Clear
11:35 AM 50.0 °F - -11.2 °F 8% 30.35 in 10.0 mi WNW 5.8 mph - N/A   Clear
11:55 AM 51.8 °F - -9.4 °F 8% 30.34 in 10.0 mi WSW 6.9 mph - N/A   Clear
12:15 PM 51.8 °F - -4.0 °F 10% 30.33 in 10.0 mi ESE 3.5 mph - N/A   Clear
12:35 PM 51.8 °F - -5.8 °F 9% 30.31 in 10.0 mi WSW 3.5 mph - N/A   Clear
12:55 PM 53.6 °F - -5.8 °F 9% 30.31 in 10.0 mi West 3.5 mph - N/A   Clear
1:15 PM 53.6 °F - -5.8 °F 9% 30.30 in 10.0 mi Calm Calm - N/A   Clear
1:35 PM 55.4 °F - -4.0 °F 9% 30.30 in 10.0 mi SE 4.6 mph - N/A   Clear
1:55 PM 53.6 °F - -2.2 °F 10% 30.30 in 10.0 mi ESE 5.8 mph - N/A   Clear
2:15 PM 55.4 °F - -2.2 °F 9% 30.30 in 10.0 mi SE 3.5 mph - N/A   Clear
2:35 PM 55.4 °F - -4.0 °F 9% 30.30 in 10.0 mi Calm Calm - N/A   Clear
2:55 PM 55.4 °F - -2.2 °F 9% 30.30 in 10.0 mi ESE 6.9 mph - N/A   Clear
3:15 PM 53.6 °F - -2.2 °F 10% 30.30 in 10.0 mi ESE 6.9 mph - N/A   Clear
3:35 PM 51.8 °F - -2.2 °F 11% 30.31 in 10.0 mi SE 5.8 mph - N/A   Clear
3:55 PM 48.2 °F - -4.0 °F 11% 30.31 in 10.0 mi ESE 6.9 mph - N/A   Clear
4:15 PM 44.6 °F - -2.2 °F 14% 30.31 in 10.0 mi Calm Calm - N/A   Clear
4:35 PM 42.8 °F 41.1 °F -2.2 °F 15% 30.31 in 10.0 mi West 3.5 mph - N/A   Clear
4:55 PM 39.2 °F - -0.4 °F 19% 30.32 in 10.0 mi Calm Calm - N/A   Clear
5:15 PM 37.4 °F - -2.2 °F 19% 30.33 in 10.0 mi Calm Calm - N/A   Clear
5:35 PM 35.6 °F - -0.4 °F 22% 30.33 in 10.0 mi Calm Calm - N/A   Clear
5:55 PM 33.8 °F 30.8 °F 1.4 °F 25% 30.34 in 10.0 mi North 3.5 mph - N/A   Clear
6:15 PM 33.8 °F 30.8 °F 3.2 °F 28% 30.35 in 10.0 mi North 3.5 mph - N/A   Clear
6:35 PM 30.2 °F 26.7 °F 3.2 °F 32% 30.35 in 10.0 mi NW 3.5 mph - N/A   Clear
6:55 PM 28.4 °F 23.3 °F 3.2 °F 34% 30.36 in 10.0 mi North 4.6 mph - N/A   Clear
7:15 PM 30.2 °F 26.7 °F 3.2 °F 32% 30.36 in 10.0 mi North 3.5 mph - N/A   Clear
7:35 PM 30.2 °F - 3.2 °F 32% 30.37 in 10.0 mi Calm Calm - N/A   Clear
7:55 PM 26.6 °F 22.6 °F 3.2 °F 37% 30.37 in 10.0 mi NNW 3.5 mph - N/A   Clear
8:15 PM 30.2 °F 26.7 °F 3.2 °F 32% 30.38 in 10.0 mi NNW 3.5 mph - N/A   Clear
8:35 PM 28.4 °F 23.3 °F 5.0 °F 37% 30.38 in 10.0 mi NNW 4.6 mph - N/A   Clear
8:55 PM 26.6 °F - 3.2 °F 37% 30.38 in 10.0 mi Calm Calm - N/A   Clear
9:15 PM 26.6 °F 22.6 °F 3.2 °F 37% 30.38 in 10.0 mi NNW 3.5 mph - N/A   Clear
9:35 PM 24.8 °F - 3.2 °F 40% 30.38 in 10.0 mi Calm Calm - N/A   Clear
9:55 PM 23.0 °F - 5.0 °F 46% 30.39 in 10.0 mi Calm Calm - N/A   Clear
10:15 PM 23.0 °F 18.4 °F 5.0 °F 46% 30.39 in 10.0 mi NW 3.5 mph - N/A   Clear
10:35 PM 21.2 °F 16.4 °F 5.0 °F 50% 30.39 in 10.0 mi NNW 3.5 mph - N/A   Clear
10:55 PM 21.2 °F - 3.2 °F 46% 30.39 in 10.0 mi Calm Calm - N/A   Clear
11:15 PM 21.2 °F - 3.2 °F 46% 30.39 in 10.0 mi Calm Calm - N/A   Clear
11:35 PM 21.2 °F - 3.2 °F 46% 30.39 in 10.0 mi Calm Calm - N/A   Clear
11:55 PM 14.0 °F - -0.4 °F 53% 30.39 in 10.0 mi Calm Calm - N/A   Clear